This is the latest recevied weather packets stored in our database for station/object KK7KHO. If no packets are shown the sender has not sent any weather packets the latest 10 day(s).
| Time | Temp. | Humidity | Pressure | Rain* | Wind** | Luminosity | Snow |
|---|---|---|---|---|---|---|---|
| 1777837471 | 23.33° C | 57% | 1012.3 hPa | 0 mm | - | 676 W/m² | - |
| 1777837166 | 22.78° C | 56% | 1012.3 hPa | 0 mm | - | 674 W/m² | - |
| 1777836862 | 22.78° C | 57% | 1012.4 hPa | 0 mm | - | 671 W/m² | - |
| 1777836558 | 22.78° C | 56% | 1012.6 hPa | 0 mm | - | 669 W/m² | - |
| 1777836255 | 22.78° C | 58% | 1012.6 hPa | 0 mm | - | 665 W/m² | - |
| 1777835950 | 22.78° C | 57% | 1012.6 hPa | 0 mm | - | 663 W/m² | - |
| 1777835648 | 22.78° C | 57% | 1012.7 hPa | 0 mm | - | 662 W/m² | - |
| 1777835344 | 22.22° C | 58% | 1012.7 hPa | 0 mm | - | 659 W/m² | - |
| 1777835042 | 22.22° C | 56% | 1012.6 hPa | 0 mm | - | 656 W/m² | - |
| 1777834738 | 22.22° C | 57% | 1012.8 hPa | 0 mm | - | 652 W/m² | - |
| 1777834435 | 22.22° C | 55% | 1012.7 hPa | 0 mm | - | 649 W/m² | - |
| 1777834134 | 21.67° C | 56% | 1012.9 hPa | 0 mm | - | 644 W/m² | - |
| 1777833831 | 22.22° C | 57% | 1012.9 hPa | 0 mm | - | 643 W/m² | - |
| 1777833527 | 21.67° C | 60% | 1013 hPa | 0 mm | - | 640 W/m² | - |
| 1777833224 | 21.11° C | 60% | 1012.9 hPa | 0 mm | - | 638 W/m² | - |
| 1777832921 | 21.11° C | 61% | 1013.2 hPa | 0 mm | - | 637 W/m² | - |
| 1777832620 | 20.56° C | 62% | 1013.3 hPa | 0 mm | - | 638 W/m² | - |
| 1777832317 | 20° C | 64% | 1013.2 hPa | 0 mm | - | 526 W/m² | - |
| 1777832014 | 18.89° C | 67% | 1013.4 hPa | 0 mm | - | 393 W/m² | - |
| 1777831711 | 20° C | 64% | 1013.5 hPa | 0 mm | - | 350 W/m² | - |
| 1777831409 | 19.44° C | 68% | 1013.5 hPa | 0 mm | - | 335 W/m² | - |
| 1777831105 | 18.89° C | 67% | 1013.5 hPa | 0 mm | - | 377 W/m² | - |
| 1777830803 | 19.44° C | 67% | 1013.6 hPa | 0 mm | - | 336 W/m² | - |
| 1777830498 | 20° C | 65% | 1013.6 hPa | 0 mm | - | 429 W/m² | - |
| 1777830197 | 20° C | 63% | 1013.7 hPa | 0 mm | - | 482 W/m² | - |
* Rain latest hour (hover to see other rain measurements)
** Current wind speed in m/s (hover to see current wind gust speed)